When you browse on this site, cookies collect data to enhance your experience and personalize the content and advertising you see.
Visit our Privacy Policy to learn more. By continuing to use the site, you agree to this use of cookies and data.
  • In Österreich
  • Länderverzeichnis
  • Für 7 Tage
  • Wassertemperatur
  • Satellitenkarten
  • Wetterkarte
  • News
  • Widgets
  • user-avatar
    Anmelden

    Stündliche Wetter Kryl

    Heute, 21 März, Donnerstag

    Zeit Temperatur Niederschläge Wind Luftdruck Luftfeuchtigkeit
    00:00 +7°C° 0 mm 3 m/S 763 mmHg 77%
    01:00 +5°C° 0 mm 3 m/S 763 mmHg 82%
    02:00 +6°C° 0 mm 2 m/S 763 mmHg 86%
    03:00 +6°C° 0 mm 2 m/S 763 mmHg 90%
    04:00 +6°C° 0 mm 2 m/S 763 mmHg 94%
    05:00 +5°C° 0 mm 2 m/S 763 mmHg 95%
    06:00 +5°C° 0 mm 2 m/S 763 mmHg 96%
    07:00 +5°C° 0 mm 2 m/S 763 mmHg 97%
    08:00 +7°C° 0 mm 3 m/S 763 mmHg 90%
    09:00 +9°C° 0 mm 3 m/S 763 mmHg 82%
    10:00 +11°C° 0 mm 4 m/S 764 mmHg 75%
    11:00 +11°C° 0 mm 4 m/S 763 mmHg 73%
    12:00 +12°C° 0 mm 4 m/S 763 mmHg 71%
    13:00 +12°C° 0 mm 4 m/S 763 mmHg 70%
    14:00 +13°C° 0 mm 3 m/S 763 mmHg 69%
    15:00 +13°C° 0 mm 3 m/S 763 mmHg 68%
    16:00 +13°C° 0 mm 3 m/S 762 mmHg 68%
    17:00 +12°C° 0 mm 3 m/S 762 mmHg 72%
    18:00 +13°C° 0 mm 2 m/S 762 mmHg 76%
    19:00 +12°C° 0 mm 2 m/S 762 mmHg 81%
    20:00 +10°C° 0 mm 2 m/S 762 mmHg 84%
    21:00 +10°C° 0 mm 2 m/S 763 mmHg 87%
    22:00 +9°C° 0 mm 2 m/S 763 mmHg 91%
    23:00 +9°C° 0 mm 2 m/S 763 mmHg 91%

    Morgen, 22 März, Freitag

    Zeit Temperatur Niederschläge Wind Luftdruck Luftfeuchtigkeit
    00:00 +9°C° 0 mm 2 m/S 763 mmHg 92%
    01:00 +8°C° 0 mm 2 m/S 763 mmHg 93%
    02:00 +8°C° 0 mm 2 m/S 763 mmHg 93%
    03:00 +8°C° 0 mm 2 m/S 763 mmHg 94%
    04:00 +9°C° 0 mm 1 m/S 763 mmHg 94%
    05:00 +9°C° 0 mm 1 m/S 763 mmHg 95%
    06:00 +9°C° 0 mm 1 m/S 763 mmHg 95%
    07:00 +9°C° 0 mm 1 m/S 763 mmHg 96%
    08:00 +10°C° 0 mm 1 m/S 763 mmHg 87%
    09:00 +12°C° 0 mm 1 m/S 763 mmHg 79%
    10:00 +14°C° 0 mm 1 m/S 763 mmHg 71%
    11:00 +15°C° 0 mm 1 m/S 763 mmHg 66%
    12:00 +16°C° 0 mm 1 m/S 763 mmHg 61%
    13:00 +19°C° 0 mm 1 m/S 763 mmHg 56%
    14:00 +19°C° 0 mm 1 m/S 762 mmHg 55%
    15:00 +19°C° 0 mm 1 m/S 762 mmHg 54%
    16:00 +17°C° 0 mm 0 m/S 761 mmHg 53%
    17:00 +16°C° 0 mm 0 m/S 761 mmHg 58%
    18:00 +16°C° 0 mm 1 m/S 761 mmHg 63%
    19:00 +14°C° 0 mm 1 m/S 761 mmHg 68%
    20:00 +13°C° 0 mm 1 m/S 761 mmHg 72%
    21:00 +13°C° 0 mm 1 m/S 761 mmHg 76%
    22:00 +12°C° 0 mm 2 m/S 760 mmHg 80%
    23:00 +10°C° 0 mm 2 m/S 760 mmHg 83%

    übermorgen, 23 März, Samstag

    Zeit Temperatur Niederschläge Wind Luftdruck Luftfeuchtigkeit
    00:00 +10°C° 0 mm 2 m/S 760 mmHg 85%
    01:00 +10°C° 0 mm 2 m/S 760 mmHg 88%
    02:00 +9°C° 0 mm 2 m/S 759 mmHg 88%
    03:00 +9°C° 0 mm 2 m/S 759 mmHg 89%
    04:00 +9°C° 0 mm 2 m/S 758 mmHg 90%
    05:00 +8°C° 0 mm 2 m/S 758 mmHg 89%
    06:00 +8°C° 0 mm 2 m/S 758 mmHg 87%
    07:00 +8°C° 0 mm 2 m/S 758 mmHg 86%
    08:00 +10°C° 0 mm 2 m/S 758 mmHg 78%
    09:00 +13°C° 0 mm 2 m/S 758 mmHg 69%
    10:00 +15°C° 0 mm 2 m/S 758 mmHg 61%
    11:00 +17°C° 0 mm 2 m/S 758 mmHg 57%
    12:00 +18°C° 0 mm 3 m/S 758 mmHg 54%
    13:00 +19°C° 0 mm 3 m/S 758 mmHg 50%
    14:00 +19°C° 0.1 mm 3 m/S 758 mmHg 52%
    15:00 +19°C° 0.1 mm 3 m/S 757 mmHg 53%
    16:00 +18°C° 0.1 mm 4 m/S 757 mmHg 54%
    17:00 +15°C° 0 mm 4 m/S 758 mmHg 62%
    18:00 +13°C° 0 mm 4 m/S 758 mmHg 69%
    19:00 +10°C° 0 mm 5 m/S 758 mmHg 76%
    20:00 +10°C° 0 mm 4 m/S 759 mmHg 73%
    21:00 +8°C° 0 mm 4 m/S 759 mmHg 70%
    22:00 +8°C° 0 mm 3 m/S 760 mmHg 66%
    23:00 +7°C° 0 mm 3 m/S 760 mmHg 64%

    24 März, Sonntag

    Zeit Temperatur Niederschläge Wind Luftdruck Luftfeuchtigkeit
    00:00 +5°C° 0 mm 3 m/S 760 mmHg 61%
    01:00 +4°C° 0 mm 3 m/S 760 mmHg 59%
    02:00 +5°C° 0 mm 2 m/S 760 mmHg 61%
    03:00 +4°C° 0 mm 2 m/S 760 mmHg 62%
    04:00 +4°C° 0 mm 2 m/S 760 mmHg 64%
    05:00 +4°C° 0 mm 2 m/S 760 mmHg 65%
    06:00 +4°C° 0 mm 2 m/S 760 mmHg 65%
    07:00 +4°C° 0 mm 2 m/S 760 mmHg 65%
    08:00 +5°C° 0 mm 2 m/S 760 mmHg 58%
    09:00 +7°C° 0 mm 2 m/S 760 mmHg 51%
    10:00 +8°C° 0 mm 2 m/S 760 mmHg 44%
    11:00 +9°C° 0 mm 2 m/S 760 mmHg 40%
    12:00 +10°C° 0 mm 2 m/S 759 mmHg 36%
    13:00 +12°C° 0 mm 1 m/S 759 mmHg 32%
    14:00 +12°C° 0 mm 1 m/S 758 mmHg 32%
    15:00 +12°C° 0 mm 1 m/S 757 mmHg 31%
    16:00 +12°C° 0 mm 1 m/S 757 mmHg 31%
    17:00 +11°C° 0 mm 1 m/S 757 mmHg 36%
    18:00 +9°C° 0 mm 2 m/S 756 mmHg 41%
    19:00 +8°C° 0 mm 2 m/S 756 mmHg 46%
    20:00 +7°C° 0 mm 2 m/S 756 mmHg 48%
    21:00 +7°C° 0 mm 2 m/S 756 mmHg 51%
    22:00 +7°C° 0 mm 1 m/S 755 mmHg 54%
    23:00 +7°C° 0 mm 1 m/S 755 mmHg 55%

    25 März, Montag

    Zeit Temperatur Niederschläge Wind Luftdruck Luftfeuchtigkeit
    00:00 +7°C° 0 mm 1 m/S 755 mmHg 57%
    01:00 +7°C° 0 mm 1 m/S 754 mmHg 59%
    02:00 +6°C° 0 mm 1 m/S 754 mmHg 61%
    03:00 +6°C° 0 mm 1 m/S 754 mmHg 63%
    04:00 +4°C° 0 mm 2 m/S 754 mmHg 65%
    05:00 +4°C° 0 mm 2 m/S 753 mmHg 68%
    06:00 +3°C° 0 mm 3 m/S 753 mmHg 71%
    07:00 +3°C° 0 mm 3 m/S 753 mmHg 74%
    08:00 +4°C° 0 mm 4 m/S 753 mmHg 64%
    09:00 +5°C° 0 mm 5 m/S 753 mmHg 54%
    10:00 +7°C° 0 mm 5 m/S 753 mmHg 45%
    11:00 +7°C° 0 mm 6 m/S 752 mmHg 49%
    12:00 +7°C° 0 mm 6 m/S 752 mmHg 53%
    13:00 +6°C° 0 mm 7 m/S 751 mmHg 57%
    14:00 +6°C° 0.5 mm 7 m/S 751 mmHg 59%
    15:00 +6°C° 0.5 mm 8 m/S 750 mmHg 61%
    16:00 +5°C° 0.5 mm 8 m/S 750 mmHg 62%
    17:00 +4°C° 0.3 mm 7 m/S 750 mmHg 64%
    18:00 +3°C° 0.3 mm 6 m/S 750 mmHg 65%
    19:00 +2°C° 0.3 mm 5 m/S 750 mmHg 66%
    20:00 +2°C° 0 mm 6 m/S 750 mmHg 68%
    21:00 +2°C° 0 mm 6 m/S 750 mmHg 69%
    22:00 0°C° 0 mm 7 m/S 750 mmHg 70%
    23:00 0°C° 0 mm 7 m/S 750 mmHg 70%

    26 März, Dienstag

    Zeit Temperatur Niederschläge Wind Luftdruck Luftfeuchtigkeit
    00:00 0°C° 0 mm 7 m/S 749 mmHg 70%
    01:00 0°C° 0 mm 7 m/S 749 mmHg 70%
    02:00 -1°C° 0 mm 8 m/S 749 mmHg 69%
    03:00 -1°C° 0 mm 8 m/S 749 mmHg 67%
    04:00 -1°C° 0 mm 8 m/S 749 mmHg 65%
    05:00 -1°C° 0 mm 8 m/S 749 mmHg 62%
    06:00 -1°C° 0 mm 8 m/S 750 mmHg 59%
    07:00 -1°C° 0 mm 8 m/S 750 mmHg 56%
    08:00 -1°C° 0.1 mm 8 m/S 751 mmHg 52%
    09:00 0°C° 0.1 mm 9 m/S 752 mmHg 48%
    10:00 0°C° 0.1 mm 9 m/S 753 mmHg 45%
    11:00 +1°C° 0 mm 9 m/S 753 mmHg 43%
    12:00 +1°C° 0 mm 9 m/S 754 mmHg 40%
    13:00 +2°C° 0 mm 9 m/S 754 mmHg 38%
    14:00 +2°C° 0 mm 8 m/S 755 mmHg 40%
    15:00 +1°C° 0 mm 8 m/S 755 mmHg 41%
    16:00 +2°C° 0 mm 7 m/S 756 mmHg 43%
    17:00 0°C° 0 mm 7 m/S 756 mmHg 46%
    18:00 -1°C° 0 mm 6 m/S 757 mmHg 50%
    19:00 -1°C° 0 mm 5 m/S 758 mmHg 53%
    20:00 -1°C° 0 mm 5 m/S 758 mmHg 55%
    21:00 -1°C° 0 mm 5 m/S 758 mmHg 56%
    22:00 -2°C° 0 mm 5 m/S 759 mmHg 58%
    23:00 -2°C° 0 mm 5 m/S 759 mmHg 60%
    Mehr zeigen